DW6083 Weather Reports


Display with metric or nautical units.
time (UTC)temp
F
wind
direction
speed
MPH
gust
MPH
rain 1hr
in
rain 24hr
in
rain mn
in
humidity
%
barometer
mb
20260902194602 0 124 2.0 8.0 0.00 0.00 0.00 1017.1
20260902193055 0 123 4.0 10.0 0.00 0.00 0.00 1017.2
20260902191551 0 117 3.0 7.0 0.00 0.00 0.00 1017.4
20260902190048 0 117 2.0 6.0 0.00 0.00 0.00 1017.5
20260902184543 0 117 2.0 7.0 0.00 0.00 0.00 1017.6
20260902183038 0 117 2.0 6.0 0.00 0.00 0.00 1017.8
20260902181638 0 117 3.0 7.0 0.00 0.00 0.00 1017.9
20260902180025 0 117 3.0 7.0 0.00 0.00 0.00 1018.0
20260902174525 0 117 1.0 3.0 0.00 0.00 0.00 1018.1
20260902173025 0 117 0.0 6.0 0.00 0.00 0.00 1018.4
20260902171515 0 118 1.0 3.0 0.00 0.00 0.00 1018.6
20260902170015 0 117 1.0 6.0 0.00 0.00 0.00 1018.8
20260902164506 0 117 1.0 4.0 0.00 0.00 0.00 1018.9
20260902163002 0 117 2.0 4.0 0.00 0.00 0.00 1018.9
20260902161559 0 118 2.0 4.0 0.00 0.00 0.00 1019.0
20260902160106 0 117 1.0 4.0 0.00 0.00 0.00 1019.0
20260902154548 0 117 1.0 4.0 0.00 0.00 0.00 1019.2
20260902153046 0 118 0.0 3.0 0.00 0.00 0.00 1019.3
20260902151547 0 117 1.0 6.0 0.00 0.00 0.00 1019.2
20260902150028 0 118 0.0 3.0 0.00 0.00 0.00 1019.3
20260902144521 0 118 1.0 3.0 0.00 0.00 0.00 1019.2
20260902143016 0 118 0.0 1.0 0.00 0.00 0.00 1019.0
20260902141513 0 118 0.0 2.0 0.00 0.00 0.00 1019.0
20260902140012 0 118 0.0 3.0 0.00 0.00 0.00 1019.0
20260902134503 0 118 0.0 0.0 0.00 0.00 0.00 1019.1
20260902133107 0 118 0.0 0.0 0.00 0.00 0.00 1019.1
20260902131603 0 118 0.0 0.0 0.00 0.00 0.00 1019.1
20260902130050 0 118 0.0 0.0 0.00 0.00 0.00 1019.2
20260902124546 0 97 0.0 0.0 0.00 0.00 0.00 1019.3
20260902123042 0 97 0.0 0.0 0.00 0.00 0.00 1019.3
20260902121542 0 97 0.0 0.0 0.00 0.00 0.00 1019.2
20260902120034 0 97 0.0 0.0 0.00 0.00 0.00 1019.2
20260902114537 0 97 0.0 0.0 0.00 0.00 0.00 1019.2
20260902113023 0 97 0.0 0.0 0.00 0.00 0.00 1019.1
20260902111519 0 97 0.0 0.0 0.00 0.00 0.00 1018.9
20260902110027 0 97 0.0 0.0 0.00 0.00 0.00 1018.9
20260902104531 0 97 0.0 0.0 0.00 0.00 0.00 1018.8
20260902103010 0 97 0.0 0.0 0.00 0.00 0.00 1018.6
20260902101501 0 97 0.0 0.0 0.00 0.00 0.00 1018.4
20260902100123 0 97 0.0 0.0 0.00 0.00 0.00 1018.4
20260902094552 0 97 0.0 0.0 0.00 0.00 0.00 1018.4
20260902093053 0 97 0.0 0.0 0.00 0.00 0.00 1018.2
20260902091543 0 97 0.0 0.0 0.00 0.00 0.00 1018.1
20260902090039 0 97 0.0 0.0 0.00 0.00 0.00 1018.1
20260902084534 0 97 0.0 0.0 0.00 0.00 0.00 1017.9
20260902083031 0 97 0.0 0.0 0.00 0.00 0.00 1017.9
20260902081525 0 97 0.0 0.0 0.00 0.00 0.00 1017.8
20260902080023 0 97 0.0 0.0 0.00 0.00 0.00 1017.7
20260902074517 0 97 0.0 0.0 0.00 0.00 0.00 1017.6
20260902073013 0 97 0.0 0.0 0.00 0.00 0.00 1017.6
20260902071508 0 97 0.0 0.0 0.00 0.00 0.00 1017.6
20260902070006 0 97 0.0 0.0 0.00 0.00 0.00 1017.6
20260902064608 0 97 0.0 0.0 0.00 0.00 0.00 1017.7
20260902063122 0 97 0.0 0.0 0.00 0.00 0.00 1017.8
20260902060126 0 97 0.0 0.0 0.00 0.00 0.00 1018.0
20260902054544 0 97 0.0 0.0 0.00 0.00 0.00 1018.0
20260902053041 0 97 0.0 0.0 0.00 0.00 0.00 1018.0
20260902051533 0 97 0.0 0.0 0.00 0.00 0.00 1017.9
20260902050028 0 97 0.0 0.0 0.00 0.00 0.00 1017.8
20260902044538 0 97 0.0 0.0 0.00 0.00 0.00 1017.7
20260902043021 0 97 0.0 0.0 0.00 0.00 0.00 1017.7
20260902041519 0 97 0.0 0.0 0.00 0.00 0.00 1017.6
20260902040012 0 97 0.0 0.0 0.00 0.00 0.00 1017.7
20260902034511 0 97 0.0 0.0 0.00 0.00 0.00 1017.7
20260902033011 0 97 0.0 0.0 0.00 0.00 0.00 1017.7
20260902031517 0 97 0.0 0.0 0.00 0.00 0.00 1017.7
20260902030009 0 97 0.0 0.0 0.00 0.00 0.00 1017.7
20260902024508 0 97 0.0 0.0 0.00 0.00 0.00 1017.8
20260902023008 0 97 0.0 0.0 0.00 0.00 0.00 1017.6
20260902021515 0 97 0.0 0.0 0.00 0.00 0.00 1017.5
20260902020010 0 97 0.0 0.0 0.00 0.00 0.00 1017.4
20260902014521 0 97 0.0 0.0 0.00 0.00 0.00 1017.4
20260902013005 0 97 0.0 0.0 0.00 0.00 0.00 1017.2
20260902011501 0 97 0.0 0.0 0.00 0.00 0.00 1017.2
20260902010056 0 97 0.0 0.0 0.00 0.00 0.00 1017.1
20260902004552 0 97 0.0 0.0 0.00 0.00 0.00 1017.0
20260902003048 0 97 0.0 0.0 0.00 0.00 0.00 1017.0
20260902001544 0 97 0.0 0.0 0.00 0.00 0.00 1016.8
20260902000043 0 97 0.0 0.0 0.00 0.00 0.00 1016.8
20260901234548 0 97 0.0 0.0 0.00 0.00 0.00 1016.9
20260901233029 0 97 0.0 0.0 0.00 0.00 0.00 1016.9
20260901231532 0 97 0.0 1.0 0.00 0.00 0.00 1016.8
20260901230021 0 97 0.0 3.0 0.00 0.00 0.00 1016.8
20260901224516 0 97 0.0 2.0 0.00 0.00 0.00 1016.8
20260901223013 0 97 1.0 6.0 0.00 0.00 0.00 1016.8
20260901221525 0 97 1.0 3.0 0.00 0.00 0.00 1016.8
20260901220002 0 97 0.0 3.0 0.00 0.00 0.00 1016.7
20260901214558 0 97 2.0 6.0 0.00 0.00 0.00 1016.7
20260901213103 0 97 1.0 3.0 0.00 0.00 0.00 1016.6
20260901211549 0 97 0.0 6.0 0.00 0.00 0.00 1016.8
20260901210046 0 97 2.0 6.0 0.00 0.00 0.00 1016.8
20260901204539 0 97 1.0 6.0 0.00 0.00 0.00 1016.9
20260901203048 0 97 1.0 6.0 0.00 0.00 0.00 1017.0
20260901201542 0 97 2.0 7.0 0.00 0.00 0.00 1017.2
20260901200029 0 97 2.0 7.0 0.00 0.00 0.00 1017.3